Weather History for Ann Arbor, MI

Change the Weather History Date:

Wednesday, January 1, 2014

  Actual Average Record
Temperature  
Mean Temperature 14 °F -  
Max Temperature 16 °F 31 °F 52 °F (2011)
Min Temperature 12 °F 16 °F 3 °F (2001)
Degree Days  
Heating Degree Days 51    
Moisture  
Dew Point 9 °F    
Average Humidity 82    
Maximum Humidity 86    
Minimum Humidity 77    
Precipitation  
Precipitation 0.06 in - - ()
Sea Level Pressure  
Sea Level Pressure 30.29 in    
Wind  
Wind Speed 8 mph (NE)    
Max Wind Speed 14 mph    
Max Gust Speed -    
Visibility 2 miles    
Events Snow    
Averages and records for this station are not official NWS values.
T = Trace of Precipitation, MM = Missing Value Source: NWS Daily Summary

Daily Weather History Graph

Daily Weather History Graph

Search for Another Location

Airport:

Trip Planner

Search our weather history database for the weather conditions in past years. The results will help you decide how hot, cold, wet, or windy it might be!

Date:

Astronomy

Jan. 01, 2014 Rise Set
Actual Time 8:03 AM EST 5:13 PM EST
Civil Twilight 7:32 AM EST 5:45 PM EST
Nautical Twilight 6:56 AM EST 6:20 PM EST
Astronomical Twilight 6:22 AM EST 6:54 PM EST
Moon 7:52 AM EST (1/1) 5:58 PM EST (1/1)
Length of Visible Light 10h 13m
Length of Day
9h 09m
New Moon, 0% of the Moon is Illuminated
Jan 1
New Moon
Jan 7
First Quarter
Jan 15
Full
Jan 24
Last Quarter
Jan 30
New

Hourly Weather History & Observations

Time (EST) Temp. Windchill Dew Point Humidity Pressure Visibility Wind Dir Wind Speed Gust Speed Precip Events Conditions
12:05 AM 15.8 °F 7.2 °F 10.4 °F 79% 30.29 in 3.0 mi West 5.8 mph - 0.00 in Snow Light Snow
12:53 AM 15.1 °F 6.4 °F 10.9 °F 84% 30.34 in 6.0 mi West 5.8 mph - 0.00 in Snow Light Snow
1:53 AM 16.0 °F 10.4 °F 10.9 °F 81% 30.33 in 6.0 mi WNW 3.5 mph - 0.00 in Snow Light Snow
2:53 AM 16.0 °F 7.4 °F 10.9 °F 81% 30.32 in 8.0 mi North 5.8 mph - 0.00 in Snow Light Snow
3:53 AM 16.0 °F 7.4 °F 10.9 °F 81% 30.34 in 4.0 mi NE 5.8 mph - 0.00 in Snow Light Snow
4:11 AM 15.8 °F 3.4 °F 10.4 °F 79% 30.29 in 2.5 mi NE 10.4 mph - 0.00 in Snow Light Snow
4:41 AM 14.0 °F 3.9 °F 8.6 °F 79% 30.29 in 3.0 mi NNE 6.9 mph - 0.00 in Snow Light Snow
4:53 AM 14.0 °F 5.1 °F 8.1 °F 77% 30.34 in 6.0 mi NE 5.8 mph - 0.00 in Snow Light Snow
5:53 AM 14.0 °F 5.1 °F 8.1 °F 77% 30.34 in 3.0 mi ENE 5.8 mph - 0.00 in Snow Light Snow
6:26 AM 14.0 °F 5.1 °F 8.6 °F 79% 30.30 in 2.5 mi NE 5.8 mph - 0.00 in Snow Light Snow
6:34 AM 14.0 °F 6.5 °F 8.6 °F 79% 30.31 in 2.0 mi NE 4.6 mph - 0.00 in Snow Light Snow
6:41 AM 14.0 °F 5.1 °F 8.6 °F 79% 30.31 in 1.5 mi NE 5.8 mph - 0.01 in Snow Light Snow
6:53 AM 14.0 °F 6.5 °F 9.0 °F 80% 30.36 in 1.8 mi NE 4.6 mph - 0.01 in Snow Light Snow
7:25 AM 14.0 °F 3.9 °F 8.6 °F 79% 30.32 in 2.5 mi NE 6.9 mph - 0.00 in Snow Light Snow
7:32 AM 14.0 °F 3.9 °F 8.6 °F 79% 30.31 in 3.0 mi NNE 6.9 mph - 0.00 in Snow Light Snow
7:53 AM 14.0 °F 3.9 °F 8.1 °F 77% 30.36 in 5.0 mi NE 6.9 mph - 0.00 in Snow Light Snow
8:06 AM 14.0 °F 2.9 °F 8.6 °F 79% 30.32 in 2.5 mi NE 8.1 mph - 0.00 in Snow Light Snow
8:11 AM 14.0 °F 2.9 °F 8.6 °F 79% 30.32 in 1.2 mi NE 8.1 mph - 0.00 in Snow Light Snow
8:23 AM 14.0 °F 3.9 °F 8.6 °F 79% 30.33 in 0.5 mi NE 6.9 mph - 0.01 in Snow Snow
8:53 AM 12.9 °F 1.6 °F 9.0 °F 84% 30.38 in 1.2 mi NE 8.1 mph - 0.01 in Snow Light Snow
9:26 AM 12.2 °F -1.0 °F 8.6 °F 85% 30.33 in 1.5 mi NE 10.4 mph - 0.00 in Snow Light Snow
9:37 AM 12.2 °F 0.7 °F 8.6 °F 85% 30.34 in 2.0 mi NE 8.1 mph - 0.00 in Snow Light Snow
9:47 AM 12.2 °F 0.7 °F 8.6 °F 85% 30.34 in 1.8 mi NE 8.1 mph - 0.00 in Snow Light Snow
9:53 AM 12.9 °F 2.6 °F 8.1 °F 81% 30.39 in 1.8 mi NE 6.9 mph - 0.00 in Snow Light Snow
10:05 AM 12.2 °F -1.0 °F 8.6 °F 85% 30.34 in 1.5 mi ENE 10.4 mph - 0.00 in Snow Light Snow
10:22 AM 12.2 °F 0.7 °F 8.6 °F 85% 30.34 in 1.2 mi ENE 8.1 mph - 0.00 in Snow Light Snow
10:53 AM 12.9 °F 2.6 °F 7.0 °F 77% 30.40 in 1.5 mi ENE 6.9 mph - 0.00 in Snow Light Snow
11:05 AM 12.2 °F -0.2 °F 6.8 °F 79% 30.35 in 1.2 mi NE 9.2 mph - 0.00 in Snow Light Snow
11:22 AM 12.2 °F 1.7 °F 8.6 °F 85% 30.34 in 0.8 mi NE 6.9 mph - 0.00 in Snow Light Snow
11:34 AM 12.2 °F 0.7 °F 8.6 °F 85% 30.34 in 0.5 mi NE 8.1 mph - 0.01 in Snow Snow
11:53 AM 12.9 °F -0.2 °F 7.0 °F 77% 30.38 in 0.8 mi NE 10.4 mph - 0.01 in Snow Light Snow
12:53 PM 12.0 °F -1.3 °F 7.0 °F 80% 30.35 in 0.8 mi NE 10.4 mph - 0.01 in Snow Light Snow
1:06 PM 12.2 °F -1.0 °F 6.8 °F 79% 30.29 in 0.8 mi NE 10.4 mph - 0.00 in Snow Light Snow
1:13 PM 12.2 °F -2.5 °F 6.8 °F 79% 30.29 in 1.0 mi NE 12.7 mph - 0.00 in Snow Light Snow
1:53 PM 12.9 °F -1.6 °F 7.0 °F 77% 30.32 in 1.0 mi NE 12.7 mph - 0.00 in Snow Light Snow
2:37 PM 12.2 °F 0.7 °F 8.6 °F 85% 30.26 in 1.5 mi NNE 8.1 mph - 0.00 in Snow Light Snow
2:53 PM 12.9 °F 0.7 °F 8.1 °F 81% 30.31 in 1.2 mi NE 9.2 mph - 0.00 in Snow Light Snow
3:02 PM 12.2 °F -1.8 °F 8.6 °F 85% 30.26 in 1.8 mi NE 11.5 mph - 0.00 in Snow Light Snow
3:18 PM 14.0 °F 2.0 °F 8.6 °F 79% 30.25 in 1.0 mi NE 9.2 mph - 0.00 in Snow Light Snow
3:53 PM 12.9 °F -1.6 °F 8.1 °F 81% 30.30 in 1.2 mi NNE 12.7 mph - 0.00 in Snow Light Snow
4:20 PM 12.2 °F -1.8 °F 8.6 °F 85% 30.26 in 1.5 mi NE 11.5 mph - 0.00 in Snow Light Snow
4:27 PM 12.2 °F -1.0 °F 8.6 °F 85% 30.26 in 1.0 mi NE 10.4 mph - 0.00 in Snow Light Snow
4:53 PM 12.9 °F 0.7 °F 9.0 °F 84% 30.30 in 1.0 mi NE 9.2 mph - 0.00 in Snow Light Snow
5:23 PM 12.2 °F -2.5 °F 8.6 °F 85% 30.25 in 1.5 mi NE 12.7 mph - 0.00 in Snow Light Snow
5:33 PM 12.2 °F -1.0 °F 8.6 °F 85% 30.25 in 2.5 mi NE 10.4 mph - 0.00 in Snow Light Snow
5:46 PM 12.2 °F 0.7 °F 8.6 °F 85% 30.26 in 2.5 mi NE 8.1 mph - 0.00 in Snow Light Snow
5:53 PM 12.9 °F 2.6 °F 8.1 °F 81% 30.31 in 2.5 mi NE 6.9 mph - 0.00 in Snow Light Snow
6:28 PM 12.2 °F 1.7 °F 8.6 °F 85% 30.25 in 3.0 mi NE 6.9 mph - 0.01 in Snow Light Snow
6:44 PM 12.2 °F -0.2 °F 8.6 °F 85% 30.25 in 2.5 mi NE 9.2 mph - 0.01 in Snow Light Snow
6:53 PM 12.9 °F 0.7 °F 8.1 °F 81% 30.30 in 2.5 mi NE 9.2 mph - 0.01 in Snow Light Snow
7:15 PM 12.2 °F -0.2 °F 8.6 °F 85% 30.25 in 1.8 mi NE 9.2 mph - 0.00 in Snow Light Snow
7:53 PM 12.9 °F 1.6 °F 9.0 °F 84% 30.29 in 1.8 mi NE 8.1 mph - 0.00 in Snow Light Snow
8:27 PM 14.0 °F 2.0 °F 8.6 °F 79% 30.24 in 2.5 mi NE 9.2 mph - 0.00 in Snow Light Snow
8:53 PM 14.0 °F 0.5 °F 10.0 °F 84% 30.27 in 2.0 mi NE 11.5 mph - 0.00 in Snow Light Snow
9:02 PM 14.0 °F 2.9 °F 10.4 °F 86% 30.22 in 3.0 mi NE 8.1 mph - 0.00 in Snow Light Snow
9:17 PM 14.0 °F 1.2 °F 10.4 °F 86% 30.22 in 2.5 mi NE 10.4 mph - 0.00 in Snow Light Snow
9:26 PM 14.0 °F 2.9 °F 10.4 °F 86% 30.21 in 2.5 mi NE 8.1 mph - 0.00 in Snow Light Snow
9:48 PM 14.0 °F 0.5 °F 10.4 °F 86% 30.21 in 2.5 mi NE 11.5 mph - 0.00 in Snow Light Snow
9:53 PM 14.0 °F 0.5 °F 9.0 °F 80% 30.26 in 3.0 mi NE 11.5 mph - 0.00 in Snow Light Snow
10:35 PM 14.0 °F -0.2 °F 8.6 °F 79% 30.20 in 2.5 mi NE 12.7 mph - 0.00 in Snow Light Snow
10:46 PM 14.0 °F 0.5 °F 8.6 °F 79% 30.20 in 2.0 mi NE 11.5 mph - 0.00 in Snow Light Snow
10:53 PM 14.0 °F 2.0 °F 10.0 °F 84% 30.25 in 2.0 mi NE 9.2 mph - 0.00 in Snow Light Snow
11:07 PM 14.0 °F 1.2 °F 10.4 °F 86% 30.20 in 3.0 mi NE 10.4 mph - 0.00 in Snow Light Snow
11:10 PM 14.0 °F 1.2 °F 10.4 °F 86% 30.20 in 2.5 mi NE 10.4 mph - 0.00 in Snow Light Snow
11:21 PM 14.0 °F 0.5 °F 10.4 °F 86% 30.19 in 1.5 mi NE 11.5 mph - 0.00 in Snow Light Snow
11:46 PM 15.8 °F 1.4 °F 10.4 °F 79% 30.18 in 1.2 mi ENE 13.8 mph - 0.01 in Snow Light Snow
11:53 PM 15.1 °F 0.5 °F 10.9 °F 84% 30.22 in 1.8 mi NE 13.8 mph - 0.01 in Snow Light Snow